SL-16 DEB, 18527

Orbit data source: Space-Track

SL-16 DEB, 18527 is space debris in LEO originally from a launch on Wed, 18 Mar 1987 UTC launched from the Tyuratam Missile And Space Complex (TTMTR). Debris objects in space refer to the collection of defunct objects orbiting the Earth. Examples of debris include non-operational satellites, rocket bodies, and fragments generated from explosions, collisions, or faulty payload assembly.

Loading next visibility...
Identifier
18527, 1987-027E
Orbit
LEO
Country
Flag of CISCIS
Related business
Manufacturer
Yuzhnoe
Mission
Spacecraft
Bus & Motor
SEP MOTOR COVER, Unknown motor
Mass
~0 kg wet, ~1 kg dry
Launch date (UTC)
1987-03-18 (39 years ago)
Launch vehicle
Unknown
Launch site
Tyuratam Missile And Space Complex (TTMTR)
Object type
Payload
Rocket body
Debris
Shape & HBR
CONE, 0.2 m
Radar Cross Section
Medium (>0.1 m² and <1 m²)

Expand to show TLE details & history
Last TLE update: 7 hours ago

TLE from 7 hours ago
0 SL-16 DEB
1 18527U 87027E   26255.26201618  .00000036  00000-0  70376-4 0  9999
2 18527  70.9956 112.1322 0193287 145.5816 215.7985 13.75826103981172
Epoch: 2026-09-12T06:17Z
TLE epoch observation values (Epoch: 2026-09-12T06:17:18.197Z)
Latitude
-0.00006°
Longitude
26.53281°
Altitude
1,097.356 km
Speed
7.246 km/s
True Right ascension
07h 28m 31s
True Declination
0° 00' 00"
Sunlit
Object was in daylight at epoch
Visualization orbit readout
Latitude
Unknown
Longitude
Unknown
Altitude
Unknown
Speed
Unknown
Apparent Right ascension
Unknown
Apparent Declination
Unknown
Sunlit
N/A
Visualization observer readout
Local Sidereal Time
06:07:39
Azimuth
Unknown
Elevation
Unknown
Doppler factor
Unknown
Orbital elements
Apogee altitude
1,118.85 km
Perigee altitude
834.532 km
Semi-major axis
7,354.828 km
Eccentricity
0.01933
Inclination
70.9956°
RAAN
112.1322°
Arg. of periapsis
145.5816°
True anomaly
214.52794°
Mean anomaly
215.7985°
Eccentric anomaly
215.16075°
Mean motion
3.441 °/min
Orbital period
104.62 mins
BSTAR
0.000070376
Loading maneuver chart data...
Computing Atmospheric mass density...
Loading historical data...
Loading historical data...
Loading historical data...
Loading historical data...
Loading historical data...
Loading historical data...
Loading historical data...

Documentation

Showing up to 5 results
|